Year,Month,Day,Hour,Minute,Value (Times are PST for temperature in C)
2020,08,16,00,00,19.10
2020,08,16,00,01,19.10
2020,08,16,00,02,19.10
2020,08,16,00,03,19.10
2020,08,16,00,04,19.10
2020,08,16,00,05,19.10
2020,08,16,00,06,19.10
2020,08,16,00,07,19.10
2020,08,16,00,08,19.10
2020,08,16,00,09,19.10
2020,08,16,00,10,19.10
2020,08,16,00,11,19.10
2020,08,16,00,12,19.20
2020,08,16,00,13,19.20
2020,08,16,00,14,19.20
2020,08,16,00,15,19.20
2020,08,16,00,16,19.20
2020,08,16,00,17,19.20
2020,08,16,00,18,19.20
2020,08,16,00,19,19.20
2020,08,16,00,20,19.20
2020,08,16,00,21,19.20
2020,08,16,00,22,19.20
2020,08,16,00,23,19.20
2020,08,16,00,24,19.10
2020,08,16,00,25,19.10
2020,08,16,00,26,19.00
2020,08,16,00,27,19.00
2020,08,16,00,28,19.00
2020,08,16,00,29,18.90
2020,08,16,00,30,18.90
2020,08,16,00,31,18.90
2020,08,16,00,32,18.90
2020,08,16,00,33,18.80
2020,08,16,00,34,18.80
2020,08,16,00,35,18.80
2020,08,16,00,36,18.80
2020,08,16,00,37,18.80
2020,08,16,00,38,18.80
2020,08,16,00,39,18.80
2020,08,16,00,40,18.70
2020,08,16,00,41,18.70
2020,08,16,00,42,18.70
2020,08,16,00,43,18.70
2020,08,16,00,44,18.70
2020,08,16,00,45,18.70
2020,08,16,00,46,18.70
2020,08,16,00,47,18.70
2020,08,16,00,48,18.70
2020,08,16,00,49,18.70
2020,08,16,00,50,18.70
2020,08,16,00,51,18.80
2020,08,16,00,52,18.80
2020,08,16,00,53,18.80
2020,08,16,00,54,18.80
2020,08,16,00,55,18.80
2020,08,16,00,56,18.80
2020,08,16,00,57,18.80
2020,08,16,00,58,18.80
2020,08,16,00,59,18.80
2020,08,16,01,00,18.80
2020,08,16,01,01,18.80
2020,08,16,01,02,18.80
2020,08,16,01,03,18.80
2020,08,16,01,04,18.80
2020,08,16,01,05,18.80
2020,08,16,01,06,18.80
2020,08,16,01,07,18.80
2020,08,16,01,08,18.80
2020,08,16,01,09,18.80
2020,08,16,01,10,18.80
2020,08,16,01,11,18.80
2020,08,16,01,12,18.80
2020,08,16,01,13,18.80
2020,08,16,01,14,18.80
2020,08,16,01,15,18.80
2020,08,16,01,16,18.80
2020,08,16,01,17,18.80
2020,08,16,01,18,18.80
2020,08,16,01,19,18.70
2020,08,16,01,20,18.70
2020,08,16,01,21,18.70
2020,08,16,01,22,18.70
2020,08,16,01,23,18.70
2020,08,16,01,24,18.60
2020,08,16,01,25,18.60
2020,08,16,01,26,18.60
2020,08,16,01,27,18.60
2020,08,16,01,28,18.50
2020,08,16,01,29,18.50
2020,08,16,01,30,18.40
2020,08,16,01,31,18.40
2020,08,16,01,32,18.40
2020,08,16,01,33,18.40
2020,08,16,01,34,18.30
2020,08,16,01,35,18.30
2020,08,16,01,36,18.30
2020,08,16,01,37,18.30
2020,08,16,01,38,18.20
2020,08,16,01,39,18.20
2020,08,16,01,40,18.20
2020,08,16,01,41,18.20
2020,08,16,01,42,18.10
2020,08,16,01,43,18.10
2020,08,16,01,44,18.10
2020,08,16,01,45,18.10
2020,08,16,01,46,18.00
2020,08,16,01,47,18.00
2020,08,16,01,48,18.00
2020,08,16,01,49,17.90
2020,08,16,01,50,17.90
2020,08,16,01,51,17.90
2020,08,16,01,52,17.90
2020,08,16,01,53,17.80
2020,08,16,01,54,17.80
2020,08,16,01,55,17.80
2020,08,16,01,56,17.80
2020,08,16,01,57,17.70
2020,08,16,01,58,17.70
2020,08,16,01,59,17.70
2020,08,16,02,00,17.70
2020,08,16,02,01,17.70
2020,08,16,02,02,17.60
2020,08,16,02,03,17.60
2020,08,16,02,04,17.60
2020,08,16,02,05,17.60
2020,08,16,02,06,17.50
2020,08,16,02,07,17.50
2020,08,16,02,08,17.40
2020,08,16,02,09,17.40
2020,08,16,02,10,17.40
2020,08,16,02,11,17.30
2020,08,16,02,12,17.30
2020,08,16,02,13,17.30
2020,08,16,02,14,17.20
2020,08,16,02,15,17.20
2020,08,16,02,16,17.20
2020,08,16,02,17,17.20
2020,08,16,02,18,17.10
2020,08,16,02,19,17.10
2020,08,16,02,20,17.10
2020,08,16,02,21,17.10
2020,08,16,02,22,17.10
2020,08,16,02,23,17.10
2020,08,16,02,24,17.10
2020,08,16,02,25,17.10
2020,08,16,02,26,17.10
2020,08,16,02,27,17.20
2020,08,16,02,28,17.20
2020,08,16,02,29,17.20
2020,08,16,02,30,17.20
2020,08,16,02,31,17.20
2020,08,16,02,32,17.20
2020,08,16,02,33,17.20
2020,08,16,02,34,17.20
2020,08,16,02,35,17.30
2020,08,16,02,36,17.30
2020,08,16,02,37,17.30
2020,08,16,02,38,17.30
2020,08,16,02,39,17.40
2020,08,16,02,40,17.40
2020,08,16,02,41,17.40
2020,08,16,02,42,17.40
2020,08,16,02,43,17.40
2020,08,16,02,44,17.50
2020,08,16,02,45,17.50
2020,08,16,02,46,17.50
2020,08,16,02,47,17.50
2020,08,16,02,48,17.60
2020,08,16,02,49,17.60
2020,08,16,02,50,17.60
2020,08,16,02,51,17.60
2020,08,16,02,52,17.60
2020,08,16,02,53,17.50
2020,08,16,02,54,17.50
2020,08,16,02,55,17.50
2020,08,16,02,56,17.50
2020,08,16,02,57,17.50
2020,08,16,02,58,17.50
2020,08,16,02,59,17.40
2020,08,16,03,00,17.40
2020,08,16,03,01,17.40
2020,08,16,03,02,17.30
2020,08,16,03,03,17.30
2020,08,16,03,04,17.30
2020,08,16,03,05,17.20
2020,08,16,03,06,17.20
2020,08,16,03,07,17.10
2020,08,16,03,08,17.10
2020,08,16,03,09,17.00
2020,08,16,03,10,16.90
2020,08,16,03,11,16.90
2020,08,16,03,12,16.80
2020,08,16,03,13,16.80
2020,08,16,03,14,16.70
2020,08,16,03,15,16.70
2020,08,16,03,16,16.60
2020,08,16,03,17,16.60
2020,08,16,03,18,16.50
2020,08,16,03,19,16.50
2020,08,16,03,20,16.50
2020,08,16,03,21,16.40
2020,08,16,03,22,16.40
2020,08,16,03,23,16.30
2020,08,16,03,24,16.30
2020,08,16,03,25,16.30
2020,08,16,03,26,16.30
2020,08,16,03,27,16.20
2020,08,16,03,28,16.20
2020,08,16,03,29,16.20
2020,08,16,03,30,16.10
2020,08,16,03,31,16.10
2020,08,16,03,32,16.10
2020,08,16,03,33,16.00
2020,08,16,03,34,16.00
2020,08,16,03,35,16.00
2020,08,16,03,36,15.90
2020,08,16,03,37,15.90
2020,08,16,03,38,15.90
2020,08,16,03,39,15.90
2020,08,16,03,40,15.90
2020,08,16,03,41,15.90
2020,08,16,03,42,15.80
2020,08,16,03,43,15.80
2020,08,16,03,44,15.80
2020,08,16,03,45,15.80
2020,08,16,03,46,15.80
2020,08,16,03,47,15.80
2020,08,16,03,48,15.80
2020,08,16,03,49,15.80
2020,08,16,03,50,15.80
2020,08,16,03,51,15.80
2020,08,16,03,52,15.80
2020,08,16,03,53,15.80
2020,08,16,03,54,15.80
2020,08,16,03,55,15.80
2020,08,16,03,56,15.80
2020,08,16,03,57,15.70
2020,08,16,03,58,15.70
2020,08,16,03,59,15.70
2020,08,16,04,00,15.70
2020,08,16,04,01,15.70
2020,08,16,04,02,15.70
2020,08,16,04,03,15.70
2020,08,16,04,04,15.70
2020,08,16,04,05,15.70
2020,08,16,04,06,15.70
2020,08,16,04,07,15.70
2020,08,16,04,08,15.70
2020,08,16,04,09,15.70
2020,08,16,04,10,15.70
2020,08,16,04,11,15.70
2020,08,16,04,12,15.70
2020,08,16,04,13,15.70
2020,08,16,04,14,15.70
2020,08,16,04,15,15.70
2020,08,16,04,16,15.60
2020,08,16,04,17,15.60
2020,08,16,04,18,15.60
2020,08,16,04,19,15.60
2020,08,16,04,20,15.70
2020,08,16,04,21,15.70
2020,08,16,04,22,15.70
2020,08,16,04,23,15.70
2020,08,16,04,24,15.70
2020,08,16,04,25,15.70
2020,08,16,04,26,15.70
2020,08,16,04,27,15.70
2020,08,16,04,28,15.70
2020,08,16,04,29,15.70
2020,08,16,04,30,15.70
2020,08,16,04,31,15.70
2020,08,16,04,32,15.70
2020,08,16,04,33,15.70
2020,08,16,04,34,15.70
2020,08,16,04,35,15.70
2020,08,16,04,36,15.70
2020,08,16,04,37,15.70
2020,08,16,04,38,15.70
2020,08,16,04,39,15.60
2020,08,16,04,40,15.60
2020,08,16,04,41,15.60
2020,08,16,04,42,15.60
2020,08,16,04,43,15.60
2020,08,16,04,44,15.60
2020,08,16,04,45,15.70
2020,08,16,04,46,15.60
2020,08,16,04,47,15.70
2020,08,16,04,48,15.70
2020,08,16,04,49,15.70
2020,08,16,04,50,15.70
2020,08,16,04,51,15.70
2020,08,16,04,52,15.70
2020,08,16,04,53,15.80
2020,08,16,04,54,15.80
2020,08,16,04,55,15.80
2020,08,16,04,56,15.80
2020,08,16,04,57,15.80
2020,08,16,04,58,15.80
2020,08,16,04,59,15.80
2020,08,16,05,00,15.80
2020,08,16,05,01,15.80
2020,08,16,05,02,15.80
2020,08,16,05,03,15.90
2020,08,16,05,04,15.90
2020,08,16,05,05,15.90
2020,08,16,05,06,15.90
2020,08,16,05,07,15.90
2020,08,16,05,08,15.90
2020,08,16,05,09,15.90
2020,08,16,05,10,15.90
2020,08,16,05,11,15.90
2020,08,16,05,12,15.90
2020,08,16,05,13,15.90
2020,08,16,05,14,15.90
2020,08,16,05,15,15.90
2020,08,16,05,16,16.00
2020,08,16,05,17,16.00
2020,08,16,05,18,16.00
2020,08,16,05,19,16.10
2020,08,16,05,20,16.10
2020,08,16,05,21,16.10
2020,08,16,05,22,16.10
2020,08,16,05,23,16.10
2020,08,16,05,24,16.10
2020,08,16,05,25,16.20
2020,08,16,05,26,16.20
2020,08,16,05,27,16.10
2020,08,16,05,28,16.10
2020,08,16,05,29,16.10
2020,08,16,05,30,16.10
2020,08,16,05,31,16.10
2020,08,16,05,32,16.10
2020,08,16,05,33,16.10
2020,08,16,05,34,16.10
2020,08,16,05,35,16.10
2020,08,16,05,36,16.10
2020,08,16,05,37,16.10
2020,08,16,05,38,16.10
2020,08,16,05,39,16.10
2020,08,16,05,40,16.10
2020,08,16,05,41,16.10
2020,08,16,05,42,16.10
2020,08,16,05,43,16.20
2020,08,16,05,44,16.10
2020,08,16,05,45,16.10
2020,08,16,05,46,16.10
2020,08,16,05,47,16.10
2020,08,16,05,48,16.10
2020,08,16,05,49,16.10
2020,08,16,05,50,16.10
2020,08,16,05,51,16.10
2020,08,16,05,52,16.10
2020,08,16,05,53,16.10
2020,08,16,05,54,16.00
2020,08,16,05,55,16.00
2020,08,16,05,56,15.90
2020,08,16,05,57,15.90
2020,08,16,05,58,15.80
2020,08,16,05,59,15.80
2020,08,16,06,00,15.80
2020,08,16,06,01,15.80
2020,08,16,06,02,15.70
2020,08,16,06,03,15.70
2020,08,16,06,04,15.70
2020,08,16,06,05,15.70
2020,08,16,06,06,15.70
2020,08,16,06,07,15.70
2020,08,16,06,08,15.60
2020,08,16,06,09,15.60
2020,08,16,06,10,15.60
2020,08,16,06,11,15.60
2020,08,16,06,12,15.60
2020,08,16,06,13,15.60
2020,08,16,06,14,15.60
2020,08,16,06,15,15.60
2020,08,16,06,16,15.60
2020,08,16,06,17,15.60
2020,08,16,06,18,15.60
2020,08,16,06,19,15.60
2020,08,16,06,20,15.60
2020,08,16,06,21,15.60
2020,08,16,06,22,15.60
2020,08,16,06,23,15.60
2020,08,16,06,24,15.60
2020,08,16,06,25,15.60
2020,08,16,06,26,15.60
2020,08,16,06,27,15.60
2020,08,16,06,28,15.60
2020,08,16,06,29,15.60
2020,08,16,06,30,15.60
2020,08,16,06,31,15.60
2020,08,16,06,32,15.60
2020,08,16,06,33,15.70
2020,08,16,06,34,15.70
2020,08,16,06,35,15.70
2020,08,16,06,36,15.70
2020,08,16,06,37,15.70
2020,08,16,06,38,15.70
2020,08,16,06,39,15.80
2020,08,16,06,40,15.80
2020,08,16,06,41,15.90
2020,08,16,06,42,16.00
2020,08,16,06,43,16.10
2020,08,16,06,44,16.10
2020,08,16,06,45,16.20
2020,08,16,06,46,16.20
2020,08,16,06,47,16.20
2020,08,16,06,48,16.20
2020,08,16,06,49,16.20
2020,08,16,06,50,16.20
2020,08,16,06,51,16.30
2020,08,16,06,52,16.30
2020,08,16,06,53,16.40
2020,08,16,06,54,16.40
2020,08,16,06,55,16.40
2020,08,16,06,56,16.40
2020,08,16,06,57,16.40
2020,08,16,06,58,16.30
2020,08,16,06,59,16.30
2020,08,16,07,00,16.30
2020,08,16,07,01,16.30
2020,08,16,07,02,16.30
2020,08,16,07,03,16.30
2020,08,16,07,04,16.30
2020,08,16,07,05,16.30
2020,08,16,07,06,16.30
2020,08,16,07,07,16.30
2020,08,16,07,08,16.30
2020,08,16,07,09,16.40
2020,08,16,07,10,16.40
2020,08,16,07,11,16.40
2020,08,16,07,12,16.40
2020,08,16,07,13,16.50
2020,08,16,07,14,16.50
2020,08,16,07,15,16.50
2020,08,16,07,16,16.60
2020,08,16,07,17,16.60
2020,08,16,07,18,16.70
2020,08,16,07,19,16.70
2020,08,16,07,20,16.70
2020,08,16,07,21,16.70
2020,08,16,07,22,16.70
2020,08,16,07,23,16.70
2020,08,16,07,24,16.70
2020,08,16,07,25,16.70
2020,08,16,07,26,16.80
2020,08,16,07,27,16.80
2020,08,16,07,28,16.80
2020,08,16,07,29,16.80
2020,08,16,07,30,16.80
2020,08,16,07,31,16.80
2020,08,16,07,32,16.90
2020,08,16,07,33,17.00
2020,08,16,07,34,17.10
2020,08,16,07,35,17.20
2020,08,16,07,36,17.30
2020,08,16,07,37,17.50
2020,08,16,07,38,17.60
2020,08,16,07,39,17.80
2020,08,16,07,40,17.90
2020,08,16,07,41,17.90
2020,08,16,07,42,18.10
2020,08,16,07,43,18.10
2020,08,16,07,44,18.20
2020,08,16,07,45,18.30
2020,08,16,07,46,18.40
2020,08,16,07,47,18.50
2020,08,16,07,48,18.60
2020,08,16,07,49,18.80
2020,08,16,07,50,18.90
2020,08,16,07,51,19.00
2020,08,16,07,52,19.20
2020,08,16,07,53,19.40
2020,08,16,07,54,19.50
2020,08,16,07,55,19.70
2020,08,16,07,56,19.80
2020,08,16,07,57,20.00
2020,08,16,07,58,20.10
2020,08,16,07,59,20.20
2020,08,16,08,00,20.30
2020,08,16,08,01,20.40
2020,08,16,08,02,20.50
2020,08,16,08,03,20.60
2020,08,16,08,04,20.60
2020,08,16,08,05,20.70
2020,08,16,08,06,20.80
2020,08,16,08,07,20.80
2020,08,16,08,08,20.80
2020,08,16,08,09,20.90
2020,08,16,08,10,20.90
2020,08,16,08,11,21.00
2020,08,16,08,12,21.00
2020,08,16,08,13,21.00
2020,08,16,08,14,21.10
2020,08,16,08,15,21.10
2020,08,16,08,16,21.20
2020,08,16,08,17,21.20
2020,08,16,08,18,21.20
2020,08,16,08,19,21.20
2020,08,16,08,20,21.30
2020,08,16,08,21,21.30
2020,08,16,08,22,21.30
2020,08,16,08,23,21.30
2020,08,16,08,24,21.30
2020,08,16,08,25,21.40
2020,08,16,08,26,21.40
2020,08,16,08,27,21.40
2020,08,16,08,28,21.40
2020,08,16,08,29,21.50
2020,08,16,08,30,21.50
2020,08,16,08,31,21.50
2020,08,16,08,32,21.60
2020,08,16,08,33,21.60
2020,08,16,08,34,21.60
2020,08,16,08,35,21.60
2020,08,16,08,36,21.70
2020,08,16,08,37,21.70
2020,08,16,08,38,21.70
2020,08,16,08,39,21.80
2020,08,16,08,40,21.80
2020,08,16,08,41,21.80
2020,08,16,08,42,21.80
2020,08,16,08,43,21.80
2020,08,16,08,44,21.80
2020,08,16,08,45,21.80
2020,08,16,08,46,21.90
2020,08,16,08,47,21.90
2020,08,16,08,48,21.90
2020,08,16,08,49,21.90
2020,08,16,08,50,22.00
2020,08,16,08,51,22.00
2020,08,16,08,52,22.00
2020,08,16,08,53,22.10
2020,08,16,08,54,22.10
2020,08,16,08,55,22.10
2020,08,16,08,56,22.10
2020,08,16,08,57,22.10
2020,08,16,08,58,22.10
2020,08,16,08,59,22.10
2020,08,16,09,00,22.20
2020,08,16,09,01,22.20
2020,08,16,09,02,22.20
2020,08,16,09,03,22.20
2020,08,16,09,04,22.20
2020,08,16,09,05,22.20
2020,08,16,09,06,22.20
2020,08,16,09,07,22.20
2020,08,16,09,08,22.20
2020,08,16,09,09,22.20
2020,08,16,09,10,22.20
2020,08,16,09,11,22.30
2020,08,16,09,12,22.30
2020,08,16,09,13,22.30
2020,08,16,09,14,22.30
2020,08,16,09,15,22.30
2020,08,16,09,16,22.30
2020,08,16,09,17,22.40
2020,08,16,09,18,22.40
2020,08,16,09,19,22.40
2020,08,16,09,20,22.40
2020,08,16,09,21,22.40
2020,08,16,09,22,22.40
2020,08,16,09,23,22.50
2020,08,16,09,24,22.50
2020,08,16,09,25,22.50
2020,08,16,09,26,22.60
2020,08,16,09,27,22.60
2020,08,16,09,28,22.60
2020,08,16,09,29,22.70
2020,08,16,09,30,22.70
2020,08,16,09,31,22.70
2020,08,16,09,32,22.80
2020,08,16,09,33,22.80
2020,08,16,09,34,22.80
2020,08,16,09,35,22.80
2020,08,16,09,36,22.80
2020,08,16,09,37,22.90
2020,08,16,09,38,22.90
2020,08,16,09,39,22.90
2020,08,16,09,40,22.90
2020,08,16,09,41,23.00
2020,08,16,09,42,23.10
2020,08,16,09,43,23.10
2020,08,16,09,44,23.10
2020,08,16,09,45,23.20
2020,08,16,09,46,23.20
2020,08,16,09,47,23.20
2020,08,16,09,48,23.30
2020,08,16,09,49,23.30
2020,08,16,09,50,23.30
2020,08,16,09,51,23.30
2020,08,16,09,52,23.30
2020,08,16,09,53,23.30
2020,08,16,09,54,23.40
2020,08,16,09,55,23.40
2020,08,16,09,56,23.40
2020,08,16,09,57,23.50
2020,08,16,09,58,23.50
2020,08,16,09,59,23.60
2020,08,16,10,00,23.60
2020,08,16,10,01,23.70
2020,08,16,10,02,23.70
2020,08,16,10,03,23.70
2020,08,16,10,04,23.80
2020,08,16,10,05,23.80
2020,08,16,10,06,23.80
2020,08,16,10,07,23.80
2020,08,16,10,08,23.80
2020,08,16,10,09,23.70
2020,08,16,10,10,23.70
2020,08,16,10,11,23.70
2020,08,16,10,12,23.70
2020,08,16,10,13,23.70
2020,08,16,10,14,23.70
2020,08,16,10,15,23.70
2020,08,16,10,16,23.80
2020,08,16,10,17,23.80
2020,08,16,10,18,23.80
2020,08,16,10,19,23.80
2020,08,16,10,20,23.80
2020,08,16,10,21,23.80
2020,08,16,10,22,23.80
2020,08,16,10,23,23.80
2020,08,16,10,24,23.90
2020,08,16,10,25,23.90
2020,08,16,10,26,23.90
2020,08,16,10,27,23.90
2020,08,16,10,28,23.90
2020,08,16,10,29,23.90
2020,08,16,10,30,23.90
2020,08,16,10,31,23.90
2020,08,16,10,32,23.90
2020,08,16,10,33,23.90
2020,08,16,10,34,24.00
2020,08,16,10,35,24.00
2020,08,16,10,36,24.00
2020,08,16,10,37,24.10
2020,08,16,10,38,24.10
2020,08,16,10,39,24.10
2020,08,16,10,40,24.20
2020,08,16,10,41,24.20
2020,08,16,10,42,24.20
2020,08,16,10,43,24.30
2020,08,16,10,44,24.30
2020,08,16,10,45,24.30
2020,08,16,10,46,24.40
2020,08,16,10,47,24.50
2020,08,16,10,48,24.50
2020,08,16,10,49,24.60
2020,08,16,10,50,24.70
2020,08,16,10,51,24.80
2020,08,16,10,52,24.80
2020,08,16,10,53,24.90
2020,08,16,10,54,24.90
2020,08,16,10,55,25.00
2020,08,16,10,56,25.00
2020,08,16,10,57,25.00
2020,08,16,10,58,25.00
2020,08,16,10,59,25.00
2020,08,16,11,00,25.00
2020,08,16,11,01,25.10
2020,08,16,11,02,25.10
2020,08,16,11,03,25.10
2020,08,16,11,04,25.10
2020,08,16,11,05,25.10
2020,08,16,11,06,25.20
2020,08,16,11,07,25.20
2020,08,16,11,08,25.20
2020,08,16,11,09,25.30
2020,08,16,11,10,25.30
2020,08,16,11,11,25.30
2020,08,16,11,12,25.30
2020,08,16,11,13,25.40
2020,08,16,11,14,25.40
2020,08,16,11,15,25.40
2020,08,16,11,16,25.40
2020,08,16,11,17,25.40
2020,08,16,11,18,25.40
2020,08,16,11,19,25.40
2020,08,16,11,20,25.40
2020,08,16,11,21,25.40
2020,08,16,11,22,25.40
2020,08,16,11,23,25.30
2020,08,16,11,24,25.30
2020,08,16,11,25,25.30
2020,08,16,11,26,25.30
2020,08,16,11,27,25.40
2020,08,16,11,28,25.30
2020,08,16,11,29,25.30
2020,08,16,11,30,25.30
2020,08,16,11,31,25.30
2020,08,16,11,32,25.40
2020,08,16,11,33,25.40
2020,08,16,11,34,25.40
2020,08,16,11,35,25.50
2020,08,16,11,36,25.50
2020,08,16,11,37,25.50
2020,08,16,11,38,25.60
2020,08,16,11,39,25.70
2020,08,16,11,40,25.80
2020,08,16,11,41,25.80
2020,08,16,11,42,25.90
2020,08,16,11,43,25.90
2020,08,16,11,44,26.00
2020,08,16,11,45,26.00
2020,08,16,11,46,26.10
2020,08,16,11,47,26.10
2020,08,16,11,48,26.10
2020,08,16,11,49,26.10
2020,08,16,11,50,26.10
2020,08,16,11,51,26.10
2020,08,16,11,52,26.10
2020,08,16,11,53,26.10
2020,08,16,11,54,26.10
2020,08,16,11,55,26.20
2020,08,16,11,56,26.20
2020,08,16,11,57,26.20
2020,08,16,11,58,26.20
2020,08,16,11,59,26.20
2020,08,16,12,00,26.30
2020,08,16,12,01,26.30
2020,08,16,12,02,26.30
2020,08,16,12,03,26.30
2020,08,16,12,04,26.30
2020,08,16,12,05,26.30
2020,08,16,12,06,26.30
2020,08,16,12,07,26.30
2020,08,16,12,08,26.40
2020,08,16,12,09,26.40
2020,08,16,12,10,26.50
2020,08,16,12,11,26.60
2020,08,16,12,12,26.60
2020,08,16,12,13,26.60
2020,08,16,12,14,26.70
2020,08,16,12,15,26.70
2020,08,16,12,16,26.70
2020,08,16,12,17,26.80
2020,08,16,12,18,26.80
2020,08,16,12,19,26.80
2020,08,16,12,20,26.90
2020,08,16,12,21,27.00
2020,08,16,12,22,27.00
2020,08,16,12,23,27.00
2020,08,16,12,24,27.10
2020,08,16,12,25,27.10
2020,08,16,12,26,27.10
2020,08,16,12,27,27.20
2020,08,16,12,28,27.20
2020,08,16,12,29,27.20
2020,08,16,12,30,27.20
2020,08,16,12,31,27.20
2020,08,16,12,32,27.20
2020,08,16,12,33,27.30
2020,08,16,12,34,27.30
2020,08,16,12,35,27.40
2020,08,16,12,36,27.40
2020,08,16,12,37,27.50
2020,08,16,12,38,27.50
2020,08,16,12,39,27.60
2020,08,16,12,40,27.70
2020,08,16,12,41,27.70
2020,08,16,12,42,27.70
2020,08,16,12,43,27.70
2020,08,16,12,44,27.70
2020,08,16,12,45,27.70
2020,08,16,12,46,27.70
2020,08,16,12,47,27.70
2020,08,16,12,48,27.70
2020,08,16,12,49,27.70
2020,08,16,12,50,27.70
2020,08,16,12,51,27.70
2020,08,16,12,52,27.80
2020,08,16,12,53,27.80
2020,08,16,12,54,27.80
2020,08,16,12,55,27.80
2020,08,16,12,56,27.90
2020,08,16,12,57,27.90
2020,08,16,12,58,28.00
2020,08,16,12,59,28.10
2020,08,16,13,00,28.20
2020,08,16,13,01,28.30
2020,08,16,13,02,28.30
2020,08,16,13,03,28.40
2020,08,16,13,04,28.40
2020,08,16,13,05,28.50
2020,08,16,13,06,28.50
2020,08,16,13,07,28.60
2020,08,16,13,08,28.60
2020,08,16,13,09,28.60
2020,08,16,13,10,28.60
2020,08,16,13,11,28.60
2020,08,16,13,12,28.60
2020,08,16,13,13,28.60
2020,08,16,13,14,28.60
2020,08,16,13,15,28.60
2020,08,16,13,16,28.60
2020,08,16,13,17,28.60
2020,08,16,13,18,28.50
2020,08,16,13,19,28.50
2020,08,16,13,20,28.50
2020,08,16,13,21,28.50
2020,08,16,13,22,28.50
2020,08,16,13,23,28.50
2020,08,16,13,24,28.50
2020,08,16,13,25,28.60
2020,08,16,13,26,28.60
2020,08,16,13,27,28.70
2020,08,16,13,28,28.70
2020,08,16,13,29,28.80
2020,08,16,13,30,28.90
2020,08,16,13,31,29.00
2020,08,16,13,32,29.00
2020,08,16,13,33,29.10
2020,08,16,13,34,29.10
2020,08,16,13,35,29.10
2020,08,16,13,36,29.10
2020,08,16,13,37,29.10
2020,08,16,13,38,29.10
2020,08,16,13,39,29.20
2020,08,16,13,40,29.20
2020,08,16,13,41,29.30
2020,08,16,13,42,29.30
2020,08,16,13,43,29.40
2020,08,16,13,44,29.30
2020,08,16,13,45,29.30
2020,08,16,13,46,29.30
2020,08,16,13,47,29.30
2020,08,16,13,48,29.30
2020,08,16,13,49,29.20
2020,08,16,13,50,29.20
2020,08,16,13,51,29.10
2020,08,16,13,52,29.10
2020,08,16,13,53,29.10
2020,08,16,13,54,29.10
2020,08,16,13,55,29.20
2020,08,16,13,56,29.20
2020,08,16,13,57,29.30
2020,08,16,13,58,29.30
2020,08,16,13,59,29.30
2020,08,16,14,00,29.40
2020,08,16,14,01,29.40
2020,08,16,14,02,29.50
2020,08,16,14,03,29.50
2020,08,16,14,04,29.50
2020,08,16,14,05,29.40
2020,08,16,14,06,29.50
2020,08,16,14,07,29.50
2020,08,16,14,08,29.50
2020,08,16,14,09,29.50
2020,08,16,14,10,29.60
2020,08,16,14,11,29.60
2020,08,16,14,12,29.60
2020,08,16,14,13,29.70
2020,08,16,14,14,29.70
2020,08,16,14,15,29.80
2020,08,16,14,16,29.80
2020,08,16,14,17,29.80
2020,08,16,14,18,29.80
2020,08,16,14,19,29.80
2020,08,16,14,20,29.80
2020,08,16,14,21,29.80
2020,08,16,14,22,29.80
2020,08,16,14,23,29.80
2020,08,16,14,24,29.90
2020,08,16,14,25,29.90
2020,08,16,14,26,29.90
2020,08,16,14,27,29.90
2020,08,16,14,28,30.00
2020,08,16,14,29,30.00
2020,08,16,14,30,30.00
2020,08,16,14,31,30.10
2020,08,16,14,32,30.00
2020,08,16,14,33,30.00
2020,08,16,14,34,30.00
2020,08,16,14,35,30.00
2020,08,16,14,36,30.00
2020,08,16,14,37,29.90
2020,08,16,14,38,30.00
2020,08,16,14,39,30.00
2020,08,16,14,40,30.00
2020,08,16,14,41,30.10
2020,08,16,14,42,30.10
2020,08,16,14,43,30.10
2020,08,16,14,44,30.10
2020,08,16,14,45,30.10
2020,08,16,14,46,30.10
2020,08,16,14,47,30.10
2020,08,16,14,48,30.20
2020,08,16,14,49,30.30
2020,08,16,14,50,30.30
2020,08,16,14,51,30.40
2020,08,16,14,52,30.50
2020,08,16,14,53,30.50
2020,08,16,14,54,30.60
2020,08,16,14,55,30.70
2020,08,16,14,56,30.70
2020,08,16,14,57,30.70
2020,08,16,14,58,30.70
2020,08,16,14,59,30.80
2020,08,16,15,00,30.80
2020,08,16,15,01,30.80
2020,08,16,15,02,30.80
2020,08,16,15,03,30.70
2020,08,16,15,04,30.70
2020,08,16,15,05,30.70
2020,08,16,15,06,30.70
2020,08,16,15,07,30.60
2020,08,16,15,08,30.60
2020,08,16,15,09,30.60
2020,08,16,15,10,30.60
2020,08,16,15,11,30.60
2020,08,16,15,12,30.60
2020,08,16,15,13,30.60
2020,08,16,15,14,30.70
2020,08,16,15,15,30.70
2020,08,16,15,16,30.70
2020,08,16,15,17,30.70
2020,08,16,15,18,30.70
2020,08,16,15,19,30.80
2020,08,16,15,20,30.80
2020,08,16,15,21,30.80
2020,08,16,15,22,30.80
2020,08,16,15,23,30.80
2020,08,16,15,24,30.80
2020,08,16,15,25,30.60
2020,08,16,15,26,30.30
2020,08,16,15,27,30.00
2020,08,16,15,28,29.80
2020,08,16,15,29,29.60
2020,08,16,15,30,29.50
2020,08,16,15,31,29.30
2020,08,16,15,32,29.10
2020,08,16,15,33,28.90
2020,08,16,15,34,28.80
2020,08,16,15,35,28.60
2020,08,16,15,36,28.50
2020,08,16,15,37,28.40
2020,08,16,15,38,28.20
2020,08,16,15,39,28.10
2020,08,16,15,40,28.00
2020,08,16,15,41,28.00
2020,08,16,15,42,28.00
2020,08,16,15,43,28.00
2020,08,16,15,44,28.10
2020,08,16,15,45,28.10
2020,08,16,15,46,28.10
2020,08,16,15,47,28.10
2020,08,16,15,48,28.10
2020,08,16,15,49,28.00
2020,08,16,15,50,27.90
2020,08,16,15,51,27.80
2020,08,16,15,52,27.80
2020,08,16,15,53,27.80
2020,08,16,15,54,27.90
2020,08,16,15,55,28.00
2020,08,16,15,56,28.10
2020,08,16,15,57,28.20
2020,08,16,15,58,28.40
2020,08,16,15,59,28.50
2020,08,16,16,00,28.60
2020,08,16,16,01,28.70
2020,08,16,16,02,28.80
2020,08,16,16,03,28.80
2020,08,16,16,04,28.90
2020,08,16,16,05,28.90
2020,08,16,16,06,28.90
2020,08,16,16,07,28.90
2020,08,16,16,08,28.90
2020,08,16,16,09,28.80
2020,08,16,16,10,28.80
2020,08,16,16,11,28.70
2020,08,16,16,12,28.60
2020,08,16,16,13,28.50
2020,08,16,16,14,28.40
2020,08,16,16,15,28.30
2020,08,16,16,16,28.20
2020,08,16,16,17,28.20
2020,08,16,16,18,28.10
2020,08,16,16,19,28.10
2020,08,16,16,20,28.10
2020,08,16,16,21,28.10
2020,08,16,16,22,28.10
2020,08,16,16,23,28.20
2020,08,16,16,24,28.30
2020,08,16,16,25,28.40
2020,08,16,16,26,28.40
2020,08,16,16,27,28.40
2020,08,16,16,28,28.50
2020,08,16,16,29,28.50
2020,08,16,16,30,28.60
2020,08,16,16,31,28.60
2020,08,16,16,32,28.70
2020,08,16,16,33,28.70
2020,08,16,16,34,28.70
2020,08,16,16,35,28.70
2020,08,16,16,36,28.70
2020,08,16,16,37,28.70
2020,08,16,16,38,28.60
2020,08,16,16,39,28.60
2020,08,16,16,40,28.60
2020,08,16,16,41,28.50
2020,08,16,16,42,28.40
2020,08,16,16,43,28.30
2020,08,16,16,44,28.20
2020,08,16,16,45,28.10
2020,08,16,16,46,28.00
2020,08,16,16,47,28.00
2020,08,16,16,48,28.00
2020,08,16,16,49,27.90
2020,08,16,16,50,27.90
2020,08,16,16,51,27.90
2020,08,16,16,52,27.90
2020,08,16,16,53,27.90
2020,08,16,16,54,27.90
2020,08,16,16,55,27.90
2020,08,16,16,56,27.90
2020,08,16,16,57,27.90
2020,08,16,16,58,27.80
2020,08,16,16,59,27.80
2020,08,16,17,00,27.70
2020,08,16,17,01,27.50
2020,08,16,17,02,27.40
2020,08,16,17,03,27.20
2020,08,16,17,04,27.10
2020,08,16,17,05,27.00
2020,08,16,17,06,26.90
2020,08,16,17,07,27.00
2020,08,16,17,08,27.00
2020,08,16,17,09,27.00
2020,08,16,17,10,27.10
2020,08,16,17,11,27.10
2020,08,16,17,12,27.10
2020,08,16,17,13,27.10
2020,08,16,17,14,27.00
2020,08,16,17,15,27.00
2020,08,16,17,16,27.10
2020,08,16,17,17,27.10
2020,08,16,17,18,27.10
2020,08,16,17,19,27.20